CAPE
945 1075 1490 1697 2036 2447 2286 2199 2171 2299 2258 2153 2123 1967 2089 2034 1939 1823 1758 1614 1530 1483 1505 1483 1474 1378 1297 1262 1180 1140 1127 1118 1071 1074 1197 1247 1272 1264 1437 1389 1336 1208 1020 934 748 688 612 481 306 115 24 9 0 2 20 89 150 233 268 309 452 668 763 828 773 622 547 615 776 616 531 644 484 366 253 456 641 571 661 798 853 585 556 1062 1065
767 1295 1490 1923 1976 2483 2386 2243 2220 2331 2287 2222 2146 1929 1853 1948 1866 1747 1745 1580 1448 1454 1312 1358 1335 1298 1232 1224 1314 1272 1314 1235 1187 1087 999 957 943 957 1144 1212 1165 1155 924 784 777 558 445 362 253 155 72 9 0 0 0 0 2 7 32 87 224 463 691 715 754 775 660 631 652 710 525 362 447 362 304 370 432 507 611 743 758 694 746 619 828
940 1318 1640 1864 1888 2362 2386 2376 2273 2314 2266 2182 2138 2078 1870 1785 1888 1748 1698 1559 1481 1370 1425 1417 1312 1245 1241 1271 1248 1248 1132 1102 1034 1026 988 975 1041 1029 1065 1187 1172 1012 903 772 665 521 471 272 159 66 3 0 0 0 0 0 0 0 0 0 47 241 498 635 669 778 573 521 519 304 276 352 299 235 246 249 259 351 417 484 583 676 817 649 766
1111 1256 1614 1826 1954 2171 2273 2484 2458 2405 2307 2269 2122 2107 2005 1892 1891 1776 1680 1564 1460 1419 1411 1404 1357 1183 1075 1026 1137 1188 973 939 944 1072 1100 1072 1070 1021 1056 1113 1136 965 836 726 580 541 415 294 121 14 0 0 0 0 0 0 0 0 0 0 0 34 304 538 624 662 470 424 399 341 240 397 215 240 412 431 421 339 456 257 260 402 461 734 593
1113 1198 1584 1881 2127 2010 2214 2340 2528 2452 2322 2304 2222 2066 1964 1944 1881 1781 1664 1510 1452 1446 1427 1450 1365 1174 1056 901 898 841 841 902 992 1067 1070 1048 1054 1050 1100 1042 1034 916 852 808 670 554 495 379 147 15 0 0 0 0 0 0 0 0 0 0 0 0 87 299 587 476 212 197 278 337 478 452 744 434 436 356 340 308 431 293 197 149 181 403 576
942 1212 1595 1691 1939 2202 2112 2305 2579 2474 2388 2350 2265 2133 1970 1919 1875 1795 1667 1530 1510 1434 1405 1445 1320 1119 1044 970 836 828 814 754 757 827 929 836 862 868 993 1019 1062 920 812 845 631 487 427 288 85 9 0 0 0 0 0 0 0 0 0 0 0 2 100 115 379 150 53 79 250 429 406 497 709 626 370 446 349 260 308 206 169 130 125 93 201
847 1237 1584 1694 1920 2117 2048 2391 2484 2530 2516 2410 2265 2185 1965 2019 1932 1750 1658 1583 1488 1462 1476 1400 1368 1156 1092 1012 915 895 819 829 797 744 794 844 752 792 842 1001 1008 830 823 730 568 433 302 114 20 0 0 0 0 0 0 0 0 0 0 0 1 22 75 64 87 2 14 405 147 333 204 382 610 885 402 208 398 265 281 256 178 95 76 60 19
940 1295 1640 1595 1858 2118 1991 2326 2580 2587 2553 2434 2327 2223 2007 1957 1942 1780 1731 1575 1537 1555 1514 1438 1361 1174 1176 1066 920 819 928 919 872 754 787 842 660 642 908 992 956 807 665 538 409 304 229 87 10 0 0 0 0 0 0 0 0 0 0 0 0 8 13 22 23 23 10 119 226 258 210 303 432 599 402 446 300 378 246 244 206 151 79 31 96
908 1331 1604 1552 1816 1921 1954 2201 2490 2671 2596 2498 2385 2189 2096 1918 1847 1887 1695 1624 1543 1545 1539 1479 1390 1188 1091 1116 921 936 1003 939 790 727 774 728 733 707 849 971 912 773 643 420 260 200 124 91 14 0 0 0 0 0 0 0 0 0 0 0 0 0 0 1 24 5 302 197 137 113 124 143 196 414 378 436 245 180 395 412 405 219 115 138 44
888 1281 1574 1628 1590 1612 1845 2204 2504 2634 2640 2485 2434 2243 2173 1990 1977 1894 1744 1681 1580 1586 1560 1529 1377 1243 1016 1112 950 997 1019 993 794 823 778 738 727 706 789 870 826 674 443 331 110 134 91 54 17 0 0 0 0 0 0 0 0 0 0 0 0 0 0 0 27 70 57 114 111 167 244 368 282 454 357 367 342 358 343 64 314 407 251 179 77
978 1315 1626 1649 1682 1551 1715 2101 2405 2483 2665 2552 2466 2376 2310 2147 2133 2011 1837 1770 1707 1672 1672 1644 1442 1232 841 1198 983 1035 940 980 860 822 742 756 730 814 863 895 800 461 308 249 226 130 51 23 20 0 0 0 0 0 0 0 0 0 0 1 0 0 0 0 1 49 86 113 104 111 165 191 156 296 488 430 253 230 433 423 349 309 304 223 128
915 1220 1558 1682 1640 1499 1626 1869 2241 2430 2501 2510 2495 2330 2392 2258 2142 1980 1903 1812 1805 1730 1571 1575 1433 1297 982 1206 1113 1125 1106 1031 876 855 812 734 780 780 828 849 563 396 241 115 99 330 256 128 1 0 0 0 0 0 0 0 0 0 0 0 0 0 0 0 1 6 122 97 76 109 143 89 96 222 389 360 253 324 314 334 333 341 269 200 186
878 902 1167 1477 1537 1354 1495 1629 1926 2208 2410 2333 2411 2523 2378 2100 2088 1826 1741 1877 1819 1779 1556 1663 1484 1219 1166 1191 1148 1115 1119 1132 955 937 864 862 906 793 843 756 500 433 283 208 93 112 290 64 1 0 0 0 0 0 0 0 0 0 0 0 0 0 0 0 7 5 37 77 56 100 169 197 229 388 192 294 304 244 219 268 244 196 164 170 145
782 872 1006 1074 1150 1293 1359 1506 1628 1953 2304 2236 2270 2501 2283 2177 1991 1830 1872 1977 1844 1735 1612 1621 1651 1311 1276 1205 1208 1062 1126 1134 1038 944 950 911 875 840 828 676 548 446 356 218 124 122 239 86 4 0 0 0 0 0 0 0 0 0 0 0 0 0 0 0 0 10 19 31 70 98 125 74 124 355 23 48 60 93 130 143 74 75 72 68 36
601 722 816 892 1018 1227 1226 1387 1513 1722 1962 2342 2149 2202 2244 2167 2185 1858 1700 1709 1835 1759 1542 1496 1512 1410 1338 1365 1344 1264 1252 1260 1117 1023 926 955 856 853 774 606 572 441 292 129 68 168 195 70 3 0 0 0 0 0 0 0 0 0 0 0 0 0 0 0 1 2 8 24 27 50 83 58 123 62 2 5 0 0 4 16 22 10 16 12 8
386 519 611 636 890 1068 1315 1275 1427 1530 1743 2058 2323 2181 2057 2186 2234 2011 1786 1682 1696 1554 1729 1637 1736 1579 1526 1436 1317 1345 1171 1125 1000 924 764 792 737 813 670 573 520 378 208 174 204 322 172 42 2 0 0 0 0 0 0 0 0 0 0 0 0 0 0 0 0 2 0 0 11 41 43 66 79 3 1 1 0 1 0 2 3 6 6 1 1
374 379 565 532 660 868 1024 1266 1456 1423 1556 1772 2080 2204 2056 2068 2006 1925 1691 1684 1612 1655 1786 1776 1711 1783 1713 1614 1386 1366 1241 1122 1027 971 763 684 728 685 748 526 575 383 284 168 201 267 104 10 0 0 0 0 0 0 0 0 0 0 0 0 0 0 0 0 0 0 0 4 28 24 16 36 32 7 2 0 2 1 0 0 0 0 0 1 0
32 254 340 385 449 584 726 908 1356 1369 1619 1638 1757 2055 2057 1916 1917 1888 1755 1572 1606 1738 1759 1582 1597 1514 1413 1344 1284 1153 1215 1264 1058 839 770 680 598 594 659 614 499 444 199 183 174 139 39 1 0 0 0 0 0 0 0 0 0 0 0 0 0 0 0 0 0 0 0 0 1 2 1 3 50 20 2 1 0 0 0 0 0 0 0 0 0
0 14 193 212 400 473 600 696 1014 1151 1313 1466 1803 1780 1944 1790 1653 1818 1768 1593 1523 1549 1480 1383 1280 1286 1273 1233 1192 1150 1134 1063 1115 899 720 645 628 596 750 650 510 320 262 196 163 75 12 0 0 0 0 0 0 0 0 0 0 0 0 0 0 0 0 0 0 0 0 0 0 2 2 0 8 14 7 6 1 1 1 0 0 0 0 0 0
0 0 0 4 38 354 428 634 809 977 1118 1197 1432 1546 1700 1870 1613 1579 1614 1619 1500 1415 1397 1345 1241 1183 1194 1212 1270 1124 1144 1212 989 1029 801 738 659 777 496 518 450 192 242 218 138 33 1 0 0 0 0 0 0 0 0 0 0 0 0 0 0 0 0 0 0 0 0 0 0 1 0 0 3 6 6 3 4 1 1 0 0 0 0 0 0
0 0 0 0 0 352 342 408 666 868 996 1030 1280 1414 1665 1658 1760 1450 1402 1559 1500 1410 1349 1288 1256 1197 1109 1150 1240 1902 1417 1336 1122 1048 776 1169 758 591 471 568 526 345 414 284 125 35 0 0 0 0 0 0 0 0 0 0 0 0 0 0 0 0 0 0 0 0 0 0 0 0 0 0 1 4 3 1 0 0 0 0 0 1 1 0 0
0 0 0 0 0 0 98 329 507 768 888 984 1105 1197 1277 1430 1773 1668 1689 1422 1510 1365 1489 1786 1292 1450 1109 1173 1375 982 1016 1071 903 900 708 903 788 717 582 586 457 218 434 267 72 12 0 0 0 0 0 0 0 0 0 0 0 0 0 0 0 0 0 0 0 0 0 0 0 0 0 0 3 11 4 0 0 0 0 0 1 0 0 1 0
0 0 0 0 0 0 0 0 150 490 757 910 997 1084 1141 1350 1417 1359 1608 1374 1448 1293 1399 1542 1582 1388 1143 1142 988 1075 1266 987 990 647 735 782 1403 692 679 472 386 205 278 165 58 15 0 0 0 0 0 0 0 0 0 0 0 0 0 0 0 0 0 0 0 0 0 0 0 0 0 0 0 10 11 4 3 0 0 0 0 0 0 0 0
0 0 0 0 0 0 0 0 0 171 542 742 878 957 1172 1133 1218 1313 1316 1650 1653 1569 1682 1413 1451 1512 1523 1097 906 1148 1155 1053 651 470 352 698 678 569 567 485 274 151 16 111 13 9 0 0 0 0 0 0 0 0 0 0 0 0 0 0 0 0 0 0 0 0 0 0 0 0 0 0 0 0 6 9 5 3 0 0 2 1 2 1 0
0 0 0 0 0 0 0 0 0 20 292 514 735 901 1006 1195 1085 988 1108 1133 1053 1138 987 1180 1123 1336 1496 1262 1107 1040 1102 811 766 580 432 474 546 507 458 374 388 347 201 186 73 1 2 9 0 0 0 0 0 0 0 0 0 0 0 0 0 0 0 0 0 0 0 0 0 0 0 0 0 0 0 0 8 6 2 0 1 2 3 3 1
0 0 0 0 0 0 0 0 0 0 90 362 639 706 930 961 969 909 832 921 1410 1109 1086 1440 1045 1351 1430 1206 1226 1181 1046 941 761 617 480 294 395 357 304 176 303 186 252 162 103 14 7 1 1 0 0 0 0 0 0 0 0 0 0 0 0 0 0 0 0 0 0 0 0 0 0 0 0 0 0 0 0 8 4 1 0 2 4 2 0
0 0 0 0 0 0 0 0 0 0 31 325 507 628 1042 1040 986 1080 916 705 688 974 866 1217 909 863 1141 1160 1236 1163 938 796 757 684 626 462 337 318 189 181 238 119 74 55 67 69 0 24 11 0 0 0 0 0 0 0 0 0 0 0 0 0 0 0 0 0 0 0 0 0 0 0 0 0 0 0 0 5 9 5 1 0 10 2 4
0 0 0 0 0 0 0 0 0 0 41 293 371 525 739 775 1292 1064 776 1055 750 508 859 648 738 994 1067 801 857 701 595 536 675 620 710 628 481 479 363 318 211 142 80 0 0 0 0 54 2 0 0 0 0 0 0 0 0 0 0 0 0 0 0 0 0 0 0 0 0 0 0 0 0 0 0 0 0 0 8 10 6 4 4 5 14
0 0 0 0 0 0 0 0 0 0 30 136 351 382 551 599 885 546 1166 828 642 601 1022 743 561 620 978 625 545 607 725 723 647 580 487 594 594 592 663 354 179 117 23 0 0 0 0 1 0 0 0 3 0 0 0 0 0 0 0 0 0 0 0 0 0 0 0 0 0 0 0 0 0 0 0 0 0 0 2 14 20 46 63 31 15
0 0 0 0 1 0 1 3 0 0 38 96 367 657 660 398 445 662 742 485 311 478 350 308 335 63 362 376 339 620 654 694 631 630 538 506 542 354 301 218 93 117 32 35 1 0 3 4 0 12 6 5 0 0 0 0 0 0 0 0 0 0 0 0 0 0 0 0 0 0 0 0 0 0 0 0 0 0 0 0 6 20 23 42 56
0 0 0 0 0 1 1 2 1 2 47 52 323 557 461 569 305 374 177 110 294 256 0 1 2 2 158 253 14 27 476 675 539 528 554 491 514 330 170 66 61 58 49 35 3 2 1 2 14 20 7 11 4 0 0 0 0 0 0 0 0 0 0 0 0 0 0 0 0 0 0 0 0 0 0 0 0 0 0 0 0 2 5 8 25
0 0 0 0 1 2 2 0 0 4 121 104 203 317 3 541 490 2 357 10 33 191 0 60 45 0 377 389 305 23 0 1 348 478 467 512 448 251 2 14 28 38 4 0 0 3 1 0 7 12 11 5 3 0 0 0 0 0 0 0 0 0 0 0 0 0 0 0 0 0 0 0 0 0 0 0 0 0 0 0 0 0 0 1 3
0 0 0 0 1 1 2 1 1 0 70 218 7 297 43 94 62 0 0 0 46 60 12 1 2 0 0 66 339 86 0 1 0 424 483 405 300 262 142 97 41 59 44 4 6 12 12 10 2 15 11 7 6 0 0 0 0 0 0 0 0 0 0 0 0 0 0 0 0 0 0 0 0 0 0 0 0 0 0 0 0 0 0 0 1
0 0 0 0 0 1 1 0 0 46 42 38 4 0 38 0 4 36 2 0 0 0 0 1 0 0 0 36 1 0 0 0 0 297 312 348 358 246 222 164 54 30 30 1 2 3 1 7 1 0 2 4 0 0 2 2 0 0 0 0 0 0 0 0 0 0 0 0 0 0 0 0 0 0 0 0 0 0 0 0 0 0 0 0 0
0 0 0 0 3 4 4 4 2 5 7 2 5 4 5 1 0 1 0 0 2 0 0 0 0 0 0 1 0 3 0 2 9 12 14 188 230 170 138 123 119 29 47 1 0 1 0 1 0 0 0 0 2 2 1 3 3 0 0 0 0 0 0 0 0 0 0 0 0 0 0 0 0 0 0 0 0 0 0 0 0 0 0 0 0
0 0 1 1 4 4 5 4 4 6 6 4 2 2 0 0 0 0 0 0 0 0 0 0 0 0 0 0 0 0 0 0 0 2 2 19 6 6 10 12 2 3 9 4 0 0 0 8 17 22 6 6 7 6 4 2 5 1 0 0 0 0 0 0 0 0 0 0 0 0 0 0 0 0 0 0 0 0 0 0 0 0 0 0 0
0 1 2 2 2 4 4 4 4 2 3 4 2 1 1 0 0 0 0 0 0 0 0 0 0 0 0 0 0 0 0 0 0 0 0 0 0 0 3 0 0 6 6 2 2 10 16 22 11 0 0 0 0 2 12 18 11 8 5 0 0 0 0 0 0 0 0 0 0 0 0 0 0 0 0 0 0 0 0 0 0 0 0 0 0
1 2 2 2 3 4 4 4 4 3 3 2 0 0 0 0 0 0 0 0 0 0 0 1 3 4 0 0 0 0 0 0 0 0 0 0 0 0 0 0 0 0 0 0 1 6 8 2 0 12 16 6 2 6 18 7 0 1 1 0 0 3 1 0 0 0 0 0 0 0 0 0 0 0 0 0 0 0 0 0 0 0 0 0 0
1 2 4 2 2 4 6 6 6 5 4 2 1 0 0 0 0 0 0 0 0 0 0 0 0 0 2 5 7 5 2 0 0 0 0 0 0 0 0 0 0 0 15 20 3 16 25 6 4 13 14 0 3 6 11 0 0 0 0 0 5 0 0 0 0 0 0 0 0 0 0 0 0 0 0 0 0 0 0 0 0 0 0 0 0
4 4 4 3 1 5 6 5 3 3 3 2 3 2 0 0 0 0 0 0 0 0 0 0 0 0 0 0 0 1 0 1 2 0 0 0 3 2 12 8 4 0 3 2 1 0 2 0 0 0 0 0 0 0 0 0 0 0 0 0 0 0 0 0 0 0 0 0 0 0 0 0 0 0 0 0 0 0 0 0 0 0 0 0 0
4 7 5 5 6 5 5 1 1 1 1 1 1 0 1 0 1 1 0 0 0 0 0 0 0 0 0 0 0 0 0 0 0 0 0 0 0 0 0 0 0 0 0 0 0 0 0 0 0 0 0 0 0 0 0 0 0 0 0 0 0 0 0 0 0 0 0 0 0 0 0 0 0 0 0 0 0 0 0 0 0 0 0 0 0
3 7 9 9 8 6 7 3 4 3 3 3 0 0 0 0 0 0 0 0 0 0 0 0 0 0 0 0 0 0 0 0 0 0 0 0 0 0 0 0 0 0 0 0 0 0 0 0 0 0 0 0 0 0 0 0 0 0 0 0 0 0 0 0 0 0 0 0 0 0 0 0 0 0 0 0 0 0 0 0 0 0 0 0 0
1 5 6 6 7 6 6 5 4 2 0 1 0 0 0 0 0 0 0 0 0 0 0 0 0 0 0 0 0 0 0 0 0 0 0 0 0 0 0 0 0 0 0 0 0 0 0 0 0 0 0 0 0 0 0 0 0 0 0 0 0 0 0 0 0 0 0 0 0 0 0 0 0 0 0 0 0 0 0 0 0 0 0 0 0
0 2 3 5 4 4 3 2 1 0 0 0 0 0 0 0 0 0 0 0 0 0 0 0 0 0 0 0 0 0 0 0 0 0 0 0 0 0 0 0 0 0 0 0 0 0 0 0 0 0 0 0 0 0 0 0 0 0 0 0 0 0 0 0 0 0 0 0 0 0 0 0 0 0 0 0 0 0 0 0 0 0 0 0 0
0 0 0 0 0 0 0 0 0 0 0 0 0 0 0 0 0 0 0 0 0 0 0 0 0 0 0 0 0 0 0 0 0 0 0 0 0 0 0 0 0 0 0 0 0 0 0 0 0 0 0 0 0 0 0 0 0 0 0 0 0 0 0 0 0 0 0 0 0 0 0 0 0 0 0 0 0 0 0 0 0 0 0 0 0
0 0 0 0 0 0 0 0 0 0 0 0 0 0 0 0 0 0 0 0 0 0 0 0 0 0 0 0 0 0 0 0 0 0 0 0 0 0 0 0 0 0 0 0 0 0 0 0 0 0 0 0 0 0 0 0 0 0 0 0 0 0 0 0 0 0 0 0 0 0 0 0 0 0 0 0 0 0 0 0 0 0 0 0 0
0 0 0 0 0 0 0 0 0 0 0 0 0 0 0 0 0 0 0 0 0 0 0 0 0 0 0 0 0 0 0 0 0 0 0 0 0 0 0 0 0 0 0 0 0 0 0 0 0 0 0 0 0 0 0 0 0 0 0 0 0 0 0 0 0 0 0 0 0 0 0 0 0 0 0 0 0 0 0 0 0 0 0 0 0
0 0 0 0 0 0 0 0 0 0 0 0 0 0 0 0 0 0 0 0 0 0 0 0 0 0 0 0 0 0 0 0 0 0 0 0 0 0 0 0 0 0 0 0 0 0 0 0 0 0 0 0 0 0 0 0 0 0 0 0 0 0 0 0 0 0 0 0 0 0 0 0 0 0 0 0 0 0 0 0 0 0 0 0 0
0 0 0 0 0 0 0 0 0 0 0 0 0 0 0 0 0 0 0 0 0 0 0 0 0 0 0 0 0 0 0 0 0 0 0 0 0 0 0 0 0 0 0 0 0 0 0 0 0 0 0 0 0 0 0 0 0 0 0 0 0 0 0 0 0 0 0 0 0 0 0 0 0 0 0 0 0 0 0 0 0 0 0 0 0
0 0 0 0 0 0 0 0 0 0 0 0 0 0 0 0 0 0 0 0 0 0 0 0 0 0 0 0 0 0 0 0 0 0 0 0 0 0 0 0 0 0 0 0 0 0 0 0 0 0 0 0 0 0 0 0 0 0 0 0 0 0 0 0 0 0 0 0 0 0 0 0 0 0 0 0 0 0 0 0 0 0 0 0 0
0 0 0 0 0 0 0 0 0 0 0 0 0 0 0 0 0 0 0 0 0 0 0 0 0 0 0 0 0 0 0 0 0 0 0 0 0 0 0 0 0 0 0 0 0 0 0 0 0 0 0 0 0 0 0 0 0 0 0 0 0 0 0 0 0 0 0 0 0 0 0 0 0 0 0 0 0 0 0 0 0 0 0 0 0
Wind_Speed
13 12 14 12 14 15 15 13 12 10 9 8 7 7 8 10 12 14 14 15 15 16 16 16 16 16 15 16 16 17 18 18 18 19 18 18 18 18 18 20 22 25 26 26 26 25 25 25 25 25 nan nan nan nan nan nan 25 25 24 25 25 25 26 26 25 25 25 26 26 27 25 24 24 24 24 25 25 25 23 21 18 21 20 23 25
14 12 13 13 11 14 12 14 12 11 10 8 7 5 5 7 8 11 12 13 15 16 17 17 17 15 14 14 14 15 15 15 17 18 19 19 18 19 20 21 22 23 24 25 25 24 24 23 23 24 nan nan nan nan nan nan nan nan nan nan 23 23 24 23 23 22 23 22 22 22 22 24 23 23 24 24 24 25 24 23 22 20 21 24 26
14 13 14 14 10 10 11 12 12 12 10 9 8 6 6 6 6 7 9 11 14 15 16 17 17 17 15 14 14 15 14 15 15 16 17 18 18 18 20 21 21 22 25 25 25 24 23 24 24 nan nan nan nan nan nan nan nan nan nan nan nan 21 20 21 21 20 21 19 18 19 21 22 23 22 23 23 24 24 23 23 23 22 21 25 25
15 15 16 13 10 9 8 11 11 11 10 10 9 8 8 7 7 7 7 8 10 12 13 16 17 18 17 15 15 15 14 14 14 14 14 15 16 16 18 18 20 21 23 24 23 24 25 25 25 nan nan nan nan nan nan nan nan nan nan nan nan nan 18 19 19 20 19 18 15 10 16 18 20 22 22 23 24 25 22 24 24 24 24 24 26
14 15 17 17 17 12 9 10 10 11 12 11 10 10 9 9 8 8 7 7 8 9 11 13 15 17 18 17 16 15 15 15 14 14 13 13 14 14 15 16 18 19 20 21 22 24 25 25 25 nan nan nan nan nan nan nan nan nan nan nan nan nan nan 16 18 17 18 15 13 8 16 17 18 21 21 23 24 24 22 24 24 24 23 24 25
13 15 17 18 17 16 11 11 12 12 11 11 12 11 11 10 9 8 8 7 7 7 8 10 11 14 17 18 17 17 16 16 15 14 14 14 13 13 14 14 16 18 18 20 22 24 24 23 nan nan nan nan nan nan nan nan nan nan nan nan nan nan nan 14 16 17 nan nan 6 13 15 16 17 17 20 22 23 23 23 24 25 25 24 nan 23
13 13 15 18 16 17 12 13 14 14 13 12 13 13 12 12 11 10 8 8 7 7 6 8 9 11 13 16 17 18 19 18 17 16 15 15 15 15 15 14 16 17 19 20 21 21 21 22 nan nan nan nan nan nan nan nan nan nan nan nan nan nan nan nan nan nan nan 4 14 14 15 17 18 17 21 21 22 23 24 25 26 nan nan nan nan
9 11 14 16 17 12 13 13 13 14 16 14 13 13 13 13 12 11 10 10 9 8 7 7 8 9 10 12 14 16 19 21 21 19 18 18 17 17 17 17 19 19 18 20 20 20 21 nan nan nan nan nan nan nan nan nan nan nan nan nan nan nan nan nan nan nan nan 12 14 16 16 17 19 18 22 22 23 24 25 26 26 26 nan nan nan
9 11 12 14 14 12 11 14 14 13 16 16 15 15 13 13 12 12 12 11 11 10 9 8 8 9 10 10 11 13 16 19 21 21 20 20 20 19 20 20 20 20 21 21 20 20 22 nan nan nan nan nan nan nan nan nan nan nan nan nan nan nan nan nan nan nan 10 15 15 17 17 17 19 20 24 25 26 25 25 22 24 27 28 26 nan
8 10 10 12 12 10 9 11 13 14 16 16 15 16 15 14 14 13 13 12 11 12 10 9 9 9 11 10 10 11 13 14 16 18 19 20 21 21 22 22 21 20 22 21 21 22 nan nan nan nan nan nan nan nan nan nan nan nan nan nan nan nan nan nan nan nan nan 15 18 19 18 14 19 21 24 26 27 27 26 nan 28 27 25 25 nan
9 8 9 10 11 10 7 6 10 12 13 14 15 16 17 16 15 14 14 12 12 12 13 10 11 10 11 11 11 12 11 12 14 14 16 17 18 20 22 22 22 22 23 23 22 21 nan nan nan nan nan nan nan nan nan nan nan nan nan nan nan nan nan nan nan nan nan 17 18 19 19 10 20 21 25 26 27 27 25 25 25 27 28 30 30
9 8 8 9 12 9 8 7 7 9 12 12 14 16 16 15 15 16 15 14 13 12 13 12 10 12 11 13 12 12 13 13 14 14 14 15 16 18 20 20 22 24 25 25 nan 27 25 26 nan nan nan nan nan nan nan nan nan nan nan nan nan nan nan nan nan nan 18 nan nan 18 19 nan nan 25 26 27 27 29 28 28 29 29 30 30 31
10 8 7 9 10 10 7 8 8 8 11 12 13 14 15 16 16 15 16 15 14 12 13 13 11 11 12 13 12 12 12 14 15 15 14 15 16 17 18 19 21 22 24 25 nan 26 26 nan nan nan nan nan nan nan nan nan nan nan nan nan nan nan nan nan nan nan nan nan nan nan 20 21 23 21 25 27 28 29 29 29 31 30 31 31 31
10 11 10 9 9 10 6 7 7 8 9 12 12 13 15 16 15 16 16 15 14 13 12 14 13 11 12 11 11 12 14 14 15 15 15 16 16 17 19 20 21 22 24 25 24 25 24 nan nan nan nan nan nan nan nan nan nan nan nan nan nan nan nan nan nan nan nan nan nan nan 21 nan 23 19 nan nan nan nan 28 28 nan nan nan nan nan
8 10 11 10 9 8 7 4 6 7 8 9 11 11 13 15 16 15 14 14 14 15 13 12 12 12 11 13 11 11 13 14 15 16 15 16 17 18 19 20 23 24 25 25 nan 24 25 nan nan nan nan nan nan nan nan nan nan nan nan nan nan nan nan nan nan nan nan nan nan nan nan nan 23 nan nan nan nan nan nan nan nan nan nan nan nan
5 7 8 9 8 8 7 7 3 4 6 6 10 11 10 12 14 14 13 13 12 14 15 14 14 12 12 11 11 9 12 13 13 16 15 16 17 18 18 20 22 24 24 24 26 29 27 nan nan nan nan nan nan nan nan nan nan nan nan nan nan nan nan nan nan nan nan nan nan nan nan nan nan nan nan nan nan nan nan nan nan nan nan nan nan
7 6 6 7 7 6 7 8 8 4 4 5 5 10 10 10 12 13 13 13 14 15 16 16 16 17 16 15 14 12 12 15 12 14 15 15 17 18 20 20 24 25 27 28 28 28 29 nan nan nan nan nan nan nan nan nan nan nan nan nan nan nan nan nan nan nan nan nan nan nan nan nan nan nan nan nan nan nan nan nan nan nan nan nan nan
nan 8 8 6 4 5 5 6 7 7 7 7 6 5 10 10 11 13 14 15 15 16 17 17 18 18 18 19 19 18 18 18 17 14 16 16 15 17 19 21 23 27 30 31 31 30 nan nan nan nan nan nan nan nan nan nan nan nan nan nan nan nan nan nan nan nan nan nan nan nan nan nan nan nan nan nan nan nan nan nan nan nan nan nan nan
nan nan 11 10 7 5 6 5 5 7 9 8 8 9 7 10 11 12 13 15 16 17 19 19 20 20 21 21 22 22 22 22 22 20 19 18 15 19 20 20 21 27 31 32 32 nan nan nan nan nan nan nan nan nan nan nan nan nan nan nan nan nan nan nan nan nan nan nan nan nan nan nan nan nan nan nan nan nan nan nan nan nan nan nan nan
nan nan nan nan nan 8 6 7 7 8 9 9 9 10 13 9 13 14 13 14 16 18 20 21 22 23 24 24 24 24 23 22 26 23 22 20 18 15 25 23 21 26 30 32 33 nan nan nan nan nan nan nan nan nan nan nan nan nan nan nan nan nan nan nan nan nan nan nan nan nan nan nan nan nan nan nan nan nan nan nan nan nan nan nan nan
nan nan nan nan nan 10 9 10 9 10 11 11 10 10 13 16 13 17 17 15 17 18 20 22 23 24 24 25 24 20 19 22 23 21 24 21 24 16 24 25 23 26 29 33 34 nan nan nan nan nan nan nan nan nan nan nan nan nan nan nan nan nan nan nan nan nan nan nan nan nan nan nan nan nan nan nan nan nan nan nan nan nan nan nan nan
nan nan nan nan nan nan nan 11 13 12 13 14 13 13 14 16 15 17 18 19 19 19 19 17 19 20 25 24 20 20 20 20 21 24 22 24 25 24 26 29 26 26 29 35 nan nan nan nan nan nan nan nan nan nan nan nan nan nan nan nan nan nan nan nan nan nan nan nan nan nan nan nan nan nan nan nan nan nan nan nan nan nan nan nan nan
nan nan nan nan nan nan nan nan 12 14 13 15 16 16 15 17 16 16 17 18 19 19 17 17 17 17 18 18 18 20 20 20 22 26 26 27 28 28 26 28 29 29 34 37 nan nan nan nan nan nan nan nan nan nan nan nan nan nan nan nan nan nan nan nan nan nan nan nan nan nan nan nan nan nan nan nan nan nan nan nan nan nan nan nan nan
nan nan nan nan nan nan nan nan nan 12 15 15 16 17 17 17 18 18 18 18 20 21 20 19 20 20 19 18 18 19 20 19 29 33 29 26 30 31 30 29 27 35 nan 36 nan nan nan nan nan nan nan nan nan nan nan nan nan nan nan nan nan nan nan nan nan nan nan nan nan nan nan nan nan nan nan nan nan nan nan nan nan nan nan nan nan
nan nan nan nan nan nan nan nan nan nan 13 15 15 16 16 17 17 18 18 18 19 18 20 22 22 23 22 20 20 21 22 21 22 24 24 25 27 28 30 30 31 31 34 34 nan nan nan nan nan nan nan nan nan nan nan nan nan nan nan nan nan nan nan nan nan nan nan nan nan nan nan nan nan nan nan nan nan nan nan nan nan nan nan nan nan
nan nan nan nan nan nan nan nan nan nan nan 15 15 15 15 16 17 18 18 17 20 20 18 21 22 24 24 23 23 24 23 24 24 24 25 25 25 26 27 29 30 32 28 30 32 nan nan nan nan nan nan nan nan nan nan nan nan nan nan nan nan nan nan nan nan nan nan nan nan nan nan nan nan nan nan nan nan nan nan nan nan nan nan nan nan
nan nan nan nan nan nan nan nan nan nan nan 16 15 15 15 15 16 17 16 17 20 20 20 20 20 20 21 22 23 24 25 25 26 27 27 27 27 27 28 28 29 31 nan nan nan nan nan nan nan nan nan nan nan nan nan nan nan nan nan nan nan nan nan nan nan nan nan nan nan nan nan nan nan nan nan nan nan nan nan nan nan nan nan nan nan
nan nan nan nan nan nan nan nan nan nan nan 18 17 16 15 15 18 18 18 17 18 20 20 21 20 21 21 24 23 22 23 26 28 28 29 29 28 29 31 31 31 32 nan nan nan nan nan nan nan nan nan nan nan nan nan nan nan nan nan nan nan nan nan nan nan nan nan nan nan nan nan nan nan nan nan nan nan nan nan nan nan nan nan nan nan
nan nan nan nan nan nan nan nan nan nan nan 18 18 18 18 18 17 16 18 20 19 21 24 24 23 22 24 25 25 26 26 23 27 30 30 31 30 31 32 32 34 36 nan nan nan nan nan nan nan nan nan nan nan nan nan nan nan nan nan nan nan nan nan nan nan nan nan nan nan nan nan nan nan nan nan nan nan nan nan nan nan nan nan nan nan
nan nan nan nan nan nan nan nan nan nan nan nan 20 19 19 19 21 24 24 24 24 23 26 27 27 nan 24 24 30 28 26 25 26 29 30 30 31 33 33 35 nan 36 nan nan nan nan nan nan nan nan nan nan nan nan nan nan nan nan nan nan nan nan nan nan nan nan nan nan nan nan nan nan nan nan nan nan nan nan nan nan nan nan nan nan nan
nan nan nan nan nan nan nan nan nan nan nan nan 22 22 23 23 22 26 26 27 27 27 nan nan nan nan 25 26 nan nan 29 29 30 29 29 31 33 34 35 nan nan nan nan nan nan nan nan nan nan nan nan nan nan nan nan nan nan nan nan nan nan nan nan nan nan nan nan nan nan nan nan nan nan nan nan nan nan nan nan nan nan nan nan nan nan
nan nan nan nan nan nan nan nan nan nan 20 22 22 23 nan 23 26 nan 26 nan nan 28 nan nan nan nan 28 29 32 nan nan nan 37 37 37 37 38 39 nan nan nan nan nan nan nan nan nan nan nan nan nan nan nan nan nan nan nan nan nan nan nan nan nan nan nan nan nan nan nan nan nan nan nan nan nan nan nan nan nan nan nan nan nan nan nan
nan nan nan nan nan nan nan nan nan nan nan 23 nan 23 nan nan nan nan nan nan nan nan nan nan nan nan nan nan 33 nan nan nan nan 40 40 41 42 43 42 nan nan nan nan nan nan nan nan nan nan nan nan nan nan nan nan nan nan nan nan nan nan nan nan nan nan nan nan nan nan nan nan nan nan nan nan nan nan nan nan nan nan nan nan nan nan
nan nan nan nan nan nan nan nan nan nan nan nan nan nan nan nan nan nan nan nan nan nan nan nan nan nan nan nan nan nan nan nan nan 40 42 42 44 45 44 43 nan nan nan nan nan nan nan nan nan nan nan nan nan nan nan nan nan nan nan nan nan nan nan nan nan nan nan nan nan nan nan nan nan nan nan nan nan nan nan nan nan nan nan nan nan
nan nan nan nan nan nan nan nan nan nan nan nan nan nan nan nan nan nan nan nan nan nan nan nan nan nan nan nan nan nan nan nan nan nan nan 45 46 46 46 45 45 nan nan nan nan nan nan nan nan nan nan nan nan nan nan nan nan nan nan nan nan nan nan nan nan nan nan nan nan nan nan nan nan nan nan nan nan nan nan nan nan nan nan nan nan
nan nan nan nan nan nan nan nan nan nan nan nan nan nan nan nan nan nan nan nan nan nan nan nan nan nan nan nan nan nan nan nan nan nan nan nan nan nan nan nan nan nan nan nan nan nan nan nan nan nan nan nan nan nan nan nan nan nan nan nan nan nan nan nan nan nan nan nan nan nan nan nan nan nan nan nan nan nan nan nan nan nan nan nan nan
nan nan nan nan nan nan nan nan nan nan nan nan nan nan nan nan nan nan nan nan nan nan nan nan nan nan nan nan nan nan nan nan nan nan nan nan nan nan nan nan nan nan nan nan nan nan nan nan nan nan nan nan nan nan nan nan nan nan nan nan nan nan nan nan nan nan nan nan nan nan nan nan nan nan nan nan nan nan nan nan nan nan nan nan nan
nan nan nan nan nan nan nan nan nan nan nan nan nan nan nan nan nan nan nan nan nan nan nan nan nan nan nan nan nan nan nan nan nan nan nan nan nan nan nan nan nan nan nan nan nan nan nan nan nan nan nan nan nan nan nan nan nan nan nan nan nan nan nan nan nan nan nan nan nan nan nan nan nan nan nan nan nan nan nan nan nan nan nan nan nan
nan nan nan nan nan nan nan nan nan nan nan nan nan nan nan nan nan nan nan nan nan nan nan nan nan nan nan nan nan nan nan nan nan nan nan nan nan nan nan nan nan nan nan nan nan nan nan nan nan nan nan nan nan nan nan nan nan nan nan nan nan nan nan nan nan nan nan nan nan nan nan nan nan nan nan nan nan nan nan nan nan nan nan nan nan
nan nan nan nan nan nan nan nan nan nan nan nan nan nan nan nan nan nan nan nan nan nan nan nan nan nan nan nan nan nan nan nan nan nan nan nan nan nan nan nan nan nan nan nan nan nan nan nan nan nan nan nan nan nan nan nan nan nan nan nan nan nan nan nan nan nan nan nan nan nan nan nan nan nan nan nan nan nan nan nan nan nan nan nan nan
nan nan nan nan nan nan nan nan nan nan nan nan nan nan nan nan nan nan nan nan nan nan nan nan nan nan nan nan nan nan nan nan nan nan nan nan nan nan nan nan nan nan nan nan nan nan nan nan nan nan nan nan nan nan nan nan nan nan nan nan nan nan nan nan nan nan nan nan nan nan nan nan nan nan nan nan nan nan nan nan nan nan nan nan nan
nan nan nan nan nan nan nan nan nan nan nan nan nan nan nan nan nan nan nan nan nan nan nan nan nan nan nan nan nan nan nan nan nan nan nan nan nan nan nan nan nan nan nan nan nan nan nan nan nan nan nan nan nan nan nan nan nan nan nan nan nan nan nan nan nan nan nan nan nan nan nan nan nan nan nan nan nan nan nan nan nan nan nan nan nan
nan nan nan nan nan nan nan nan nan nan nan nan nan nan nan nan nan nan nan nan nan nan nan nan nan nan nan nan nan nan nan nan nan nan nan nan nan nan nan nan nan nan nan nan nan nan nan nan nan nan nan nan nan nan nan nan nan nan nan nan nan nan nan nan nan nan nan nan nan nan nan nan nan nan nan nan nan nan nan nan nan nan nan nan nan
nan nan nan nan nan nan nan nan nan nan nan nan nan nan nan nan nan nan nan nan nan nan nan nan nan nan nan nan nan nan nan nan nan nan nan nan nan nan nan nan nan nan nan nan nan nan nan nan nan nan nan nan nan nan nan nan nan nan nan nan nan nan nan nan nan nan nan nan nan nan nan nan nan nan nan nan nan nan nan nan nan nan nan nan nan
nan nan nan nan nan nan nan nan nan nan nan nan nan nan nan nan nan nan nan nan nan nan nan nan nan nan nan nan nan nan nan nan nan nan nan nan nan nan nan nan nan nan nan nan nan nan nan nan nan nan nan nan nan nan nan nan nan nan nan nan nan nan nan nan nan nan nan nan nan nan nan nan nan nan nan nan nan nan nan nan nan nan nan nan nan
nan nan nan nan nan nan nan nan nan nan nan nan nan nan nan nan nan nan nan nan nan nan nan nan nan nan nan nan nan nan nan nan nan nan nan nan nan nan nan nan nan nan nan nan nan nan nan nan nan nan nan nan nan nan nan nan nan nan nan nan nan nan nan nan nan nan nan nan nan nan nan nan nan nan nan nan nan nan nan nan nan nan nan nan nan
nan nan nan nan nan nan nan nan nan nan nan nan nan nan nan nan nan nan nan nan nan nan nan nan nan nan nan nan nan nan nan nan nan nan nan nan nan nan nan nan nan nan nan nan nan nan nan nan nan nan nan nan nan nan nan nan nan nan nan nan nan nan nan nan nan nan nan nan nan nan nan nan nan nan nan nan nan nan nan nan nan nan nan nan nan
nan nan nan nan nan nan nan nan nan nan nan nan nan nan nan nan nan nan nan nan nan nan nan nan nan nan nan nan nan nan nan nan nan nan nan nan nan nan nan nan nan nan nan nan nan nan nan nan nan nan nan nan nan nan nan nan nan nan nan nan nan nan nan nan nan nan nan nan nan nan nan nan nan nan nan nan nan nan nan nan nan nan nan nan nan
nan nan nan nan nan nan nan nan nan nan nan nan nan nan nan nan nan nan nan nan nan nan nan nan nan nan nan nan nan nan nan nan nan nan nan nan nan nan nan nan nan nan nan nan nan nan nan nan nan nan nan nan nan nan nan nan nan nan nan nan nan nan nan nan nan nan nan nan nan nan nan nan nan nan nan nan nan nan nan nan nan nan nan nan nan
nan nan nan nan nan nan nan nan nan nan nan nan nan nan nan nan nan nan nan nan nan nan nan nan nan nan nan nan nan nan nan nan nan nan nan nan nan nan nan nan nan nan nan nan nan nan nan nan nan nan nan nan nan nan nan nan nan nan nan nan nan nan nan nan nan nan nan nan nan nan nan nan nan nan nan nan nan nan nan nan nan nan nan nan nan
nan nan nan nan nan nan nan nan nan nan nan nan nan nan nan nan nan nan nan nan nan nan nan nan nan nan nan nan nan nan nan nan nan nan nan nan nan nan nan nan nan nan nan nan nan nan nan nan nan nan nan nan nan nan nan nan nan nan nan nan nan nan nan nan nan nan nan nan nan nan nan nan nan nan nan nan nan nan nan nan nan nan nan nan nan
Wind_Direction
45 36 26 19 47 43 28 29 29 29 24 13 355 334 305 285 276 271 270 263 255 250 250 250 251 252 256 259 261 260 260 260 258 253 252 254 254 257 262 263 263 263 264 266 266 264 264 264 263 262 nan nan nan nan nan nan 250 251 250 251 251 251 251 251 251 251 249 249 249 252 251 251 249 248 248 247 243 238 236 234 229 247 244 242 239
17 28 20 16 37 45 27 22 24 23 24 23 7 349 323 295 282 273 268 267 261 256 251 251 250 248 249 253 255 260 261 259 253 248 245 246 249 252 256 260 260 263 265 265 264 264 264 263 260 258 nan nan nan nan nan nan nan nan nan nan 251 251 250 250 249 247 246 247 246 248 251 253 250 249 248 246 242 238 235 234 231 239 241 240 240
32 25 17 6 30 42 16 18 18 18 18 18 8 352 337 316 302 281 269 267 263 259 255 253 254 257 254 252 255 254 256 254 251 248 247 246 244 241 250 259 261 262 263 265 266 264 261 259 255 nan nan nan nan nan nan nan nan nan nan nan nan 248 248 247 246 244 246 245 247 264 263 255 252 251 249 246 242 240 236 235 233 237 240 235 236
28 26 21 4 29 39 18 5 12 9 10 11 2 354 348 334 321 303 287 275 268 262 261 254 256 255 256 258 257 259 258 256 252 252 251 247 245 244 250 258 261 261 262 264 264 263 258 255 253 nan nan nan nan nan nan nan nan nan nan nan nan nan 248 246 244 242 239 238 235 240 256 257 258 252 251 246 243 240 236 235 234 236 237 237 235
24 22 23 16 21 23 33 355 356 357 358 1 354 352 346 340 337 324 311 294 279 274 266 262 258 256 253 253 258 261 263 260 258 253 252 252 250 249 251 260 264 261 261 261 257 254 254 254 253 nan nan nan nan nan nan nan nan nan nan nan nan nan nan 249 248 245 237 229 219 218 247 250 250 248 246 247 244 240 237 236 235 235 234 235 234
19 15 20 18 20 15 31 2 358 350 350 349 348 346 346 341 338 330 324 310 297 285 282 274 270 264 257 256 256 258 259 259 259 263 258 255 256 259 259 264 264 262 262 261 257 255 255 254 nan nan nan nan nan nan nan nan nan nan nan nan nan nan nan 252 255 250 nan nan 223 238 241 244 248 245 244 246 246 242 239 237 236 234 233 nan 235
13 11 14 15 20 14 20 8 4 357 354 347 342 339 341 339 339 334 327 318 310 303 301 295 283 276 268 263 258 258 259 262 264 265 263 260 259 260 262 263 263 265 265 261 259 260 260 256 nan nan nan nan nan nan nan nan nan nan nan nan nan nan nan nan nan nan nan 250 242 238 240 241 245 247 247 244 244 243 240 240 238 nan nan nan nan
7 6 8 7 16 351 16 5 4 2 359 354 347 341 338 334 336 335 330 325 320 321 312 305 296 287 280 272 267 263 263 263 263 263 263 261 262 265 266 267 267 266 265 262 260 258 259 nan nan nan nan nan nan nan nan nan nan nan nan nan nan nan nan nan nan nan nan 252 248 245 244 245 246 248 253 248 245 242 243 243 241 240 nan nan nan
356 357 357 0 2 336 2 2 358 358 359 355 354 350 346 337 331 331 327 326 326 323 322 312 301 297 289 281 277 272 268 265 263 264 262 263 263 266 270 272 269 269 268 264 260 259 258 nan nan nan nan nan nan nan nan nan nan nan nan nan nan nan nan nan nan nan 282 258 258 257 249 245 249 254 254 251 249 246 235 240 258 250 243 237 nan
344 349 348 356 356 334 352 355 352 350 350 353 351 351 352 348 343 333 325 322 321 319 318 314 312 304 296 293 287 284 280 274 271 268 267 266 265 267 270 273 276 271 266 263 259 261 nan nan nan nan nan nan nan nan nan nan nan nan nan nan nan nan nan nan nan nan nan 267 262 258 251 230 256 255 257 258 256 253 250 nan 244 242 246 249 nan
336 341 344 344 344 317 336 334 338 340 341 341 345 347 350 351 350 342 336 328 322 317 314 316 317 310 304 302 297 294 294 286 277 271 271 269 269 269 271 273 273 266 261 263 263 259 nan nan nan nan nan nan nan nan nan nan nan nan nan nan nan nan nan nan nan nan nan 266 263 264 266 262 258 254 256 259 258 260 254 255 254 255 252 250 249
345 338 341 345 298 314 319 314 309 331 331 331 339 341 343 345 345 345 344 340 336 331 318 311 312 309 310 310 308 304 300 291 282 278 275 272 270 271 271 270 265 262 259 257 nan 262 261 262 nan nan nan nan nan nan nan nan nan nan nan nan nan nan nan nan nan nan 269 nan nan 260 259 nan nan 259 258 258 260 259 257 256 255 254 254 253 251
358 353 344 346 347 311 324 311 301 316 325 334 334 335 334 338 339 342 341 340 342 339 328 325 323 315 309 305 306 303 303 297 292 288 283 278 275 273 274 270 266 263 261 257 nan 255 264 nan nan nan nan nan nan nan nan nan nan nan nan nan nan nan nan nan nan nan nan nan nan nan 266 268 265 247 259 259 255 254 253 253 253 251 252 253 253
359 2 358 354 353 297 320 316 311 301 318 329 336 331 334 331 335 337 338 334 334 330 329 330 337 328 317 309 305 303 300 300 297 292 289 286 284 281 280 275 269 265 260 258 255 260 264 nan nan nan nan nan nan nan nan nan nan nan nan nan nan nan nan nan nan nan nan nan nan nan 268 nan 262 245 nan nan nan nan 255 254 nan nan nan nan nan
346 355 359 360 358 358 307 318 315 309 302 322 326 333 333 330 329 331 336 329 323 321 323 319 325 326 320 318 318 311 301 302 295 290 286 288 288 285 284 278 269 266 262 258 nan 270 270 nan nan nan nan nan nan nan nan nan nan nan nan nan nan nan nan nan nan nan nan nan nan nan nan nan 250 nan nan nan nan nan nan nan nan nan nan nan nan
313 335 350 359 1 357 354 324 291 301 300 304 319 321 321 320 319 322 326 317 312 314 312 307 309 306 297 299 311 314 313 303 293 292 288 286 285 282 282 280 274 270 265 258 257 272 270 nan nan nan nan nan nan nan nan nan nan nan nan nan nan nan nan nan nan nan nan nan nan nan nan nan nan nan nan nan nan nan nan nan nan nan nan nan nan
277 293 318 337 353 1 5 3 351 301 288 278 295 313 319 310 304 309 311 308 305 307 303 298 297 295 292 290 294 293 288 299 306 301 294 286 285 282 279 278 278 271 266 267 267 269 269 nan nan nan nan nan nan nan nan nan nan nan nan nan nan nan nan nan nan nan nan nan nan nan nan nan nan nan nan nan nan nan nan nan nan nan nan nan nan
nan 269 283 295 322 343 357 5 353 356 359 308 285 293 312 311 299 301 303 303 299 295 292 289 289 288 288 284 284 283 289 292 291 292 290 284 280 288 287 283 282 275 273 272 272 272 nan nan nan nan nan nan nan nan nan nan nan nan nan nan nan nan nan nan nan nan nan nan nan nan nan nan nan nan nan nan nan nan nan nan nan nan nan nan nan
nan nan 276 277 286 312 330 337 339 356 3 353 342 313 300 315 309 296 297 297 294 291 288 286 282 282 282 281 282 286 286 287 287 293 293 290 286 297 285 280 284 281 281 278 276 nan nan nan nan nan nan nan nan nan nan nan nan nan nan nan nan nan nan nan nan nan nan nan nan nan nan nan nan nan nan nan nan nan nan nan nan nan nan nan nan
nan nan nan nan nan 282 292 303 315 327 335 340 340 342 310 308 319 302 302 302 295 288 286 285 282 281 280 282 282 282 282 282 285 286 289 289 282 282 284 283 287 289 288 286 283 nan nan nan nan nan nan nan nan nan nan nan nan nan nan nan nan nan nan nan nan nan nan nan nan nan nan nan nan nan nan nan nan nan nan nan nan nan nan nan nan
nan nan nan nan nan 270 285 297 302 314 319 325 327 333 319 312 312 321 317 310 302 298 294 288 286 283 286 284 287 288 287 285 289 286 290 289 287 280 286 282 286 288 288 286 285 nan nan nan nan nan nan nan nan nan nan nan nan nan nan nan nan nan nan nan nan nan nan nan nan nan nan nan nan nan nan nan nan nan nan nan nan nan nan nan nan
nan nan nan nan nan nan nan 285 302 309 313 311 312 318 319 312 330 325 327 320 312 311 309 313 307 303 294 295 297 294 291 291 288 287 288 288 287 284 284 285 284 284 286 284 nan nan nan nan nan nan nan nan nan nan nan nan nan nan nan nan nan nan nan nan nan nan nan nan nan nan nan nan nan nan nan nan nan nan nan nan nan nan nan nan nan
nan nan nan nan nan nan nan nan 286 305 308 313 310 314 321 322 331 329 318 321 322 318 326 321 319 314 313 313 307 300 297 296 289 282 280 276 282 293 284 286 293 283 283 284 nan nan nan nan nan nan nan nan nan nan nan nan nan nan nan nan nan nan nan nan nan nan nan nan nan nan nan nan nan nan nan nan nan nan nan nan nan nan nan nan nan
nan nan nan nan nan nan nan nan nan 290 305 304 306 310 314 319 319 317 311 320 319 320 323 322 317 315 315 317 314 308 308 304 290 292 287 294 289 286 282 273 278 286 nan 285 nan nan nan nan nan nan nan nan nan nan nan nan nan nan nan nan nan nan nan nan nan nan nan nan nan nan nan nan nan nan nan nan nan nan nan nan nan nan nan nan nan
nan nan nan nan nan nan nan nan nan nan 295 302 305 307 306 310 311 313 317 306 308 317 319 321 319 317 318 316 313 311 312 311 310 305 303 300 299 296 290 286 284 282 290 286 nan nan nan nan nan nan nan nan nan nan nan nan nan nan nan nan nan nan nan nan nan nan nan nan nan nan nan nan nan nan nan nan nan nan nan nan nan nan nan nan nan
nan nan nan nan nan nan nan nan nan nan nan 303 305 302 305 307 307 307 307 312 304 298 301 308 314 317 315 315 313 313 313 311 310 308 307 306 306 305 299 297 293 289 284 287 285 nan nan nan nan nan nan nan nan nan nan nan nan nan nan nan nan nan nan nan nan nan nan nan nan nan nan nan nan nan nan nan nan nan nan nan nan nan nan nan nan
nan nan nan nan nan nan nan nan nan nan nan 302 301 301 305 307 304 299 302 302 297 301 300 299 300 301 304 307 311 313 315 313 311 311 310 306 304 302 298 298 300 298 nan nan nan nan nan nan nan nan nan nan nan nan nan nan nan nan nan nan nan nan nan nan nan nan nan nan nan nan nan nan nan nan nan nan nan nan nan nan nan nan nan nan nan
nan nan nan nan nan nan nan nan nan nan nan 295 296 296 296 294 287 293 296 294 286 282 280 283 291 297 298 296 293 300 308 311 310 309 308 304 301 300 299 298 297 298 nan nan nan nan nan nan nan nan nan nan nan nan nan nan nan nan nan nan nan nan nan nan nan nan nan nan nan nan nan nan nan nan nan nan nan nan nan nan nan nan nan nan nan
nan nan nan nan nan nan nan nan nan nan nan 290 290 286 284 285 288 286 280 274 279 284 283 282 278 284 293 292 289 287 289 300 303 302 300 302 302 301 300 296 297 293 nan nan nan nan nan nan nan nan nan nan nan nan nan nan nan nan nan nan nan nan nan nan nan nan nan nan nan nan nan nan nan nan nan nan nan nan nan nan nan nan nan nan nan
nan nan nan nan nan nan nan nan nan nan nan nan 288 288 287 288 286 268 274 272 267 273 274 273 270 nan 274 279 278 276 280 286 291 292 298 300 300 297 294 294 nan 296 nan nan nan nan nan nan nan nan nan nan nan nan nan nan nan nan nan nan nan nan nan nan nan nan nan nan nan nan nan nan nan nan nan nan nan nan nan nan nan nan nan nan nan
nan nan nan nan nan nan nan nan nan nan nan nan 288 276 274 268 274 274 270 271 272 272 nan nan nan nan 274 273 nan nan 277 275 277 281 289 293 291 291 288 nan nan nan nan nan nan nan nan nan nan nan nan nan nan nan nan nan nan nan nan nan nan nan nan nan nan nan nan nan nan nan nan nan nan nan nan nan nan nan nan nan nan nan nan nan nan
nan nan nan nan nan nan nan nan nan nan 274 282 278 273 nan 273 272 nan 274 nan nan 275 nan nan nan nan 274 272 275 nan nan nan 274 275 274 273 278 280 nan nan nan nan nan nan nan nan nan nan nan nan nan nan nan nan nan nan nan nan nan nan nan nan nan nan nan nan nan nan nan nan nan nan nan nan nan nan nan nan nan nan nan nan nan nan nan
nan nan nan nan nan nan nan nan nan nan nan 266 nan 270 nan nan nan nan nan nan nan nan nan nan nan nan nan nan 275 nan nan nan nan 280 277 277 277 277 278 nan nan nan nan nan nan nan nan nan nan nan nan nan nan nan nan nan nan nan nan nan nan nan nan nan nan nan nan nan nan nan nan nan nan nan nan nan nan nan nan nan nan nan nan nan nan
nan nan nan nan nan nan nan nan nan nan nan nan nan nan nan nan nan nan nan nan nan nan nan nan nan nan nan nan nan nan nan nan nan 281 282 280 279 279 278 277 nan nan nan nan nan nan nan nan nan nan nan nan nan nan nan nan nan nan nan nan nan nan nan nan nan nan nan nan nan nan nan nan nan nan nan nan nan nan nan nan nan nan nan nan nan
nan nan nan nan nan nan nan nan nan nan nan nan nan nan nan nan nan nan nan nan nan nan nan nan nan nan nan nan nan nan nan nan nan nan nan 282 282 281 280 280 277 nan nan nan nan nan nan nan nan nan nan nan nan nan nan nan nan nan nan nan nan nan nan nan nan nan nan nan nan nan nan nan nan nan nan nan nan nan nan nan nan nan nan nan nan
nan nan nan nan nan nan nan nan nan nan nan nan nan nan nan nan nan nan nan nan nan nan nan nan nan nan nan nan nan nan nan nan nan nan nan nan nan nan nan nan nan nan nan nan nan nan nan nan nan nan nan nan nan nan nan nan nan nan nan nan nan nan nan nan nan nan nan nan nan nan nan nan nan nan nan nan nan nan nan nan nan nan nan nan nan
nan nan nan nan nan nan nan nan nan nan nan nan nan nan nan nan nan nan nan nan nan nan nan nan nan nan nan nan nan nan nan nan nan nan nan nan nan nan nan nan nan nan nan nan nan nan nan nan nan nan nan nan nan nan nan nan nan nan nan nan nan nan nan nan nan nan nan nan nan nan nan nan nan nan nan nan nan nan nan nan nan nan nan nan nan
nan nan nan nan nan nan nan nan nan nan nan nan nan nan nan nan nan nan nan nan nan nan nan nan nan nan nan nan nan nan nan nan nan nan nan nan nan nan nan nan nan nan nan nan nan nan nan nan nan nan nan nan nan nan nan nan nan nan nan nan nan nan nan nan nan nan nan nan nan nan nan nan nan nan nan nan nan nan nan nan nan nan nan nan nan
nan nan nan nan nan nan nan nan nan nan nan nan nan nan nan nan nan nan nan nan nan nan nan nan nan nan nan nan nan nan nan nan nan nan nan nan nan nan nan nan nan nan nan nan nan nan nan nan nan nan nan nan nan nan nan nan nan nan nan nan nan nan nan nan nan nan nan nan nan nan nan nan nan nan nan nan nan nan nan nan nan nan nan nan nan
nan nan nan nan nan nan nan nan nan nan nan nan nan nan nan nan nan nan nan nan nan nan nan nan nan nan nan nan nan nan nan nan nan nan nan nan nan nan nan nan nan nan nan nan nan nan nan nan nan nan nan nan nan nan nan nan nan nan nan nan nan nan nan nan nan nan nan nan nan nan nan nan nan nan nan nan nan nan nan nan nan nan nan nan nan
nan nan nan nan nan nan nan nan nan nan nan nan nan nan nan nan nan nan nan nan nan nan nan nan nan nan nan nan nan nan nan nan nan nan nan nan nan nan nan nan nan nan nan nan nan nan nan nan nan nan nan nan nan nan nan nan nan nan nan nan nan nan nan nan nan nan nan nan nan nan nan nan nan nan nan nan nan nan nan nan nan nan nan nan nan
nan nan nan nan nan nan nan nan nan nan nan nan nan nan nan nan nan nan nan nan nan nan nan nan nan nan nan nan nan nan nan nan nan nan nan nan nan nan nan nan nan nan nan nan nan nan nan nan nan nan nan nan nan nan nan nan nan nan nan nan nan nan nan nan nan nan nan nan nan nan nan nan nan nan nan nan nan nan nan nan nan nan nan nan nan
nan nan nan nan nan nan nan nan nan nan nan nan nan nan nan nan nan nan nan nan nan nan nan nan nan nan nan nan nan nan nan nan nan nan nan nan nan nan nan nan nan nan nan nan nan nan nan nan nan nan nan nan nan nan nan nan nan nan nan nan nan nan nan nan nan nan nan nan nan nan nan nan nan nan nan nan nan nan nan nan nan nan nan nan nan
nan nan nan nan nan nan nan nan nan nan nan nan nan nan nan nan nan nan nan nan nan nan nan nan nan nan nan nan nan nan nan nan nan nan nan nan nan nan nan nan nan nan nan nan nan nan nan nan nan nan nan nan nan nan nan nan nan nan nan nan nan nan nan nan nan nan nan nan nan nan nan nan nan nan nan nan nan nan nan nan nan nan nan nan nan
nan nan nan nan nan nan nan nan nan nan nan nan nan nan nan nan nan nan nan nan nan nan nan nan nan nan nan nan nan nan nan nan nan nan nan nan nan nan nan nan nan nan nan nan nan nan nan nan nan nan nan nan nan nan nan nan nan nan nan nan nan nan nan nan nan nan nan nan nan nan nan nan nan nan nan nan nan nan nan nan nan nan nan nan nan
nan nan nan nan nan nan nan nan nan nan nan nan nan nan nan nan nan nan nan nan nan nan nan nan nan nan nan nan nan nan nan nan nan nan nan nan nan nan nan nan nan nan nan nan nan nan nan nan nan nan nan nan nan nan nan nan nan nan nan nan nan nan nan nan nan nan nan nan nan nan nan nan nan nan nan nan nan nan nan nan nan nan nan nan nan
nan nan nan nan nan nan nan nan nan nan nan nan nan nan nan nan nan nan nan nan nan nan nan nan nan nan nan nan nan nan nan nan nan nan nan nan nan nan nan nan nan nan nan nan nan nan nan nan nan nan nan nan nan nan nan nan nan nan nan nan nan nan nan nan nan nan nan nan nan nan nan nan nan nan nan nan nan nan nan nan nan nan nan nan nan
nan nan nan nan nan nan nan nan nan nan nan nan nan nan nan nan nan nan nan nan nan nan nan nan nan nan nan nan nan nan nan nan nan nan nan nan nan nan nan nan nan nan nan nan nan nan nan nan nan nan nan nan nan nan nan nan nan nan nan nan nan nan nan nan nan nan nan nan nan nan nan nan nan nan nan nan nan nan nan nan nan nan nan nan nan
nan nan nan nan nan nan nan nan nan nan nan nan nan nan nan nan nan nan nan nan nan nan nan nan nan nan nan nan nan nan nan nan nan nan nan nan nan nan nan nan nan nan nan nan nan nan nan nan nan nan nan nan nan nan nan nan nan nan nan nan nan nan nan nan nan nan nan nan nan nan nan nan nan nan nan nan nan nan nan nan nan nan nan nan nan
nan nan nan nan nan nan nan nan nan nan nan nan nan nan nan nan nan nan nan nan nan nan nan nan nan nan nan nan nan nan nan nan nan nan nan nan nan nan nan nan nan nan nan nan nan nan nan nan nan nan nan nan nan nan nan nan nan nan nan nan nan nan nan nan nan nan nan nan nan nan nan nan nan nan nan nan nan nan nan nan nan nan nan nan nan
nan nan nan nan nan nan nan nan nan nan nan nan nan nan nan nan nan nan nan nan nan nan nan nan nan nan nan nan nan nan nan nan nan nan nan nan nan nan nan nan nan nan nan nan nan nan nan nan nan nan nan nan nan nan nan nan nan nan nan nan nan nan nan nan nan nan nan nan nan nan nan nan nan nan nan nan nan nan nan nan nan nan nan nan nan